#timestamp,LO_Frequency,Hit,StdDev 
1548943215.6,286047012.0,P
1548943235.4,286047012.9,P
1548943255.3,286047015.5,Y
1548943275.1,286047003.1,P
1548943276.0,286047003.1,N
1548943295.8,286047011.9,P
1548943315.7,286047005.4,N
1548943335.5,286047001.4,N
1548943355.3,286047005.1,N
1548943375.2,286047010.3,N
1548943395.0,286047010.2,N
1548943395.9,286047010.2,N
1548943415.8,286047007.8,N
1548943435.6,286047006.8,N
1548943455.4,286047010.8,Y
1548943475.3,286047005.6,P
1548943495.1,286047007.5,P
1548943515.9,286047007.9,P
1548943535.7,286047000.3,N
1548943555.5,286046999.8,N
1548943575.4,286047003.0,N
1548943595.2,286047010.7,Y
1548943615.1,286047004.5,P
1548943616.0,286047004.5,P
1548943635.8,286047008.6,P
1548943655.6,286047007.7,Y
1548943675.5,286047002.8,P
1548943695.3,286047000.6,N
1548943715.2,286047000.2,N
1548943735.9,286047000.6,N
1548943755.7,286047000.6,N
1548943775.6,286047002.8,N
1548943795.4,286047003.5,N
1548943815.2,286047005.6,Y
1548943835.1,286047006.1,P
1548943836.0,286047006.1,P
1548943855.8,286047007.5,P
1548943875.7,286047003.5,N
1548943895.5,286047003.9,N
1548943915.3,286047003.6,N
1548943935.2,286047004.9,N
1548943955.0,286047007.5,Y
1548943955.9,286047007.5,P
1548943975.8,286047007.6,P
1548943995.6,286047009.5,P
1548944015.4,286047008.2,Y
1548944035.3,286047003.7,P
1548944055.1,286047003.5,N
1548944075.9,286047006.1,P
1548944095.7,286047007.3,Y
1548944115.5,286047005.9,P
1548944135.4,286047006.8,P
1548944155.2,286047005.4,P
1548944175.0,286047000.0,N
1548944175.9,286047000.0,N
1548944195.8,286047001.4,N
1548944215.6,286047004.0,N
1548944235.5,286047005.1,N
1548944255.3,286047006.5,N
1548944275.1,286047008.1,Y
1548944295.9,286047007.9,P
1548944315.7,286047013.6,P
1548944335.6,286047015.6,P
1548944355.4,286047016.0,Y
1548944375.2,286047008.2,P
1548944395.1,286047006.5,P
1548944396.0,286047006.5,P
1548944415.8,286047007.6,Y
1548944435.7,286047000.5,P
1548944455.5,286046998.3,N
1548944475.3,286046998.6,N
1548944495.2,286046999.3,N
1548944515.0,286046999.7,N
1548944515.9,286046999.7,N
1548944535.8,286047004.1,N
1548944555.6,286047005.7,N
1548944575.4,286047008.5,N
1548944595.3,286047009.2,N
1548944615.1,286047012.0,N
1548944635.8,286047010.4,N
1548944655.7,286047013.2,N
1548944675.5,286047011.1,N
1548944695.4,286047012.2,N
1548944715.2,286047008.0,N
1548944735.0,286047008.6,N
1548944735.9,286047008.6,N
1548944755.8,286047009.1,N
1548944775.6,286047012.4,N
1548944795.5,286047013.8,N
1548944815.3,286047009.5,N
1548944835.1,286047008.0,N
1548944855.9,286047009.1,N
1548944875.7,286047007.6,N
1548944895.5,286047005.6,N
1548944915.4,286047010.8,N
1548944935.2,286047010.2,N
1548944955.1,286047009.5,N
1548944956.0,286047009.5,N
1548944975.8,286047010.4,N
1548944995.6,286047011.1,N
1548945015.5,286047015.3,Y
1548945035.3,286047012.4,P
1548945055.1,286047014.3,P
1548945075.9,286047011.4,P
1548945095.7,286047013.8,Y
1548945115.6,286047003.3,P
1548945135.4,286047004.6,N
1548945155.2,286047005.4,N
1548945175.1,286047006.1,N
1548945176.0,286047006.1,N
1548945195.8,286047008.1,Y
1548945215.7,286047002.5,P
1548945235.5,286047003.5,N
1548945255.3,286047001.5,N
1548945275.2,286047000.1,N
1548945295.0,286047000.5,N
1548945295.9,286047000.5,N
1548945315.8,286047005.1,N
1548945335.6,286047007.6,Y
1548945355.4,286047002.4,P
1548945375.3,286047003.5,P
1548945395.1,286047006.8,P
1548945415.9,286047006.3,Y
1548945435.7,286047002.0,P
1548945455.5,286047002.0,N
1548945475.4,286047003.7,P
1548945495.2,286047007.2,Y
1548945515.1,286047007.5,P
1548945516.0,286047007.5,P
1548945535.8,286047001.7,N
1548945555.6,286047003.6,N
1548945575.5,286047004.7,N
1548945595.3,286047008.1,Y
1548945615.1,286047004.9,P
1548945635.9,286047007.2,P
1548945655.7,286047010.3,P
1548945675.6,286047008.5,Y
1548945695.4,286047002.0,P
1548945715.2,286047004.3,N
1548945735.1,286047006.5,P
1548945736.0,286047006.5,Y
1548945755.8,286046999.8,P
1548945775.7,286047002.5,N
1548945795.5,286047002.1,N
1548945815.3,286047006.0,Y
1548945835.2,286047001.4,P
1548945855.0,286047007.4,P
1548945855.9,286047007.4,N
1548945875.8,286047006.8,N
1548945895.6,286047009.2,Y
1548945915.4,286047003.4,P
1548945935.3,286047003.5,P
1548945955.1,286047005.5,P
1548945975.9,286047009.8,Y
1548945995.7,286047002.2,P
1548946015.6,286047002.7,N
1548946035.4,286047001.6,N
1548946055.3,286046999.7,N
1548946075.1,286047000.9,N
1548946095.8,286047000.2,N
1548946115.7,286047003.7,N
1548946135.5,286047002.3,N
1548946155.4,286047002.0,N
1548946175.2,286047005.2,Y
1548946195.0,286047004.7,P
1548946195.9,286047004.7,P
1548946215.8,286047008.4,P
1548946235.6,286047006.7,N
1548946255.5,286047007.7,Y
1548946275.3,286047003.7,P
1548946295.1,286047002.2,N
1548946315.9,286047003.2,N
1548946335.7,286047003.8,Y
1548946355.6,286046996.9,P
1548946375.4,286046998.4,N
1548946395.2,286047002.4,N
1548946415.1,286047001.6,N
1548946416.0,286047001.6,N
1548946435.8,286047004.1,N
1548946455.7,286047003.9,N
1548946475.5,286047008.5,Y
1548946495.4,286047003.9,P
1548946515.2,286047001.2,N
1548946535.0,286047004.2,P
1548946535.9,286047004.2,Y
1548946555.8,286047001.9,P
1548946575.6,286047001.5,P
1548946595.4,286047001.9,P
1548946615.3,286047005.7,Y
1548946635.1,286047004.2,P
1548946655.9,286047006.0,P
1548946675.7,286047004.2,N
1548946695.5,286047006.2,Y
1548946715.4,286047008.6,P
1548946735.2,286047008.0,P
1548946755.1,286047008.2,P
1548946756.0,286047008.2,Y
1548946775.8,286047004.3,P
1548946795.6,286047003.8,N
